When you browse on this site, cookies collect data to enhance your experience and personalize the content and advertising you see.
Visit our Privacy Policy to learn more. By continuing to use the site, you agree to this use of cookies and data.
  • In Portugal
  • List of Countries
  • For 7 days
  • Water Temperature
  • Satellite Maps
  • Weather Map
  • Weather Widgets
  • user-avatar
    Login

    Hourly Weather Novotroickoe

    Today, 19 June, Wednesday

    Time Temperature Precipitation Wind Pressure Humidity
    00:00 +16°C° 0.1 mm 2 mps 743 mmHg 92%
    01:00 +15°C° 0 mm 2 mps 743 mmHg 93%
    02:00 +15°C° 0 mm 2 mps 743 mmHg 93%
    03:00 +14°C° 0 mm 2 mps 743 mmHg 94%
    04:00 +14°C° 0 mm 3 mps 744 mmHg 93%
    05:00 +16°C° 0 mm 3 mps 744 mmHg 92%
    06:00 +17°C° 0 mm 3 mps 744 mmHg 91%
    07:00 +18°C° 0 mm 4 mps 744 mmHg 84%
    08:00 +20°C° 0 mm 4 mps 744 mmHg 78%
    09:00 +22°C° 0 mm 4 mps 744 mmHg 71%
    10:00 +22°C° 0.2 mm 4 mps 744 mmHg 67%
    11:00 +23°C° 0.2 mm 4 mps 744 mmHg 63%
    12:00 +25°C° 0.2 mm 4 mps 744 mmHg 60%
    13:00 +25°C° 0.3 mm 4 mps 745 mmHg 61%
    14:00 +25°C° 0.3 mm 4 mps 745 mmHg 63%
    15:00 +25°C° 0.3 mm 4 mps 745 mmHg 64%
    16:00 +25°C° 0.2 mm 3 mps 745 mmHg 68%
    17:00 +25°C° 0.2 mm 3 mps 745 mmHg 71%
    18:00 +25°C° 0.2 mm 2 mps 745 mmHg 75%
    19:00 +23°C° 0 mm 2 mps 745 mmHg 78%
    20:00 +20°C° 0 mm 2 mps 745 mmHg 81%
    21:00 +18°C° 0 mm 2 mps 745 mmHg 83%
    22:00 +18°C° 0 mm 2 mps 745 mmHg 85%
    23:00 +17°C° 0 mm 2 mps 746 mmHg 86%

    Tomorrow, 20 June, Thursday

    Time Temperature Precipitation Wind Pressure Humidity
    00:00 +16°C° 0 mm 2 mps 746 mmHg 87%
    01:00 +16°C° 0 mm 2 mps 746 mmHg 88%
    02:00 +16°C° 0 mm 2 mps 746 mmHg 90%
    03:00 +16°C° 0 mm 2 mps 746 mmHg 92%
    04:00 +16°C° 0 mm 2 mps 747 mmHg 90%
    05:00 +17°C° 0 mm 2 mps 747 mmHg 88%
    06:00 +18°C° 0 mm 2 mps 747 mmHg 87%
    07:00 +20°C° 0 mm 2 mps 747 mmHg 80%
    08:00 +23°C° 0 mm 2 mps 747 mmHg 73%
    09:00 +24°C° 0 mm 3 mps 748 mmHg 66%
    10:00 +25°C° 0 mm 2 mps 748 mmHg 60%
    11:00 +26°C° 0 mm 2 mps 748 mmHg 55%
    12:00 +27°C° 0 mm 2 mps 748 mmHg 50%
    13:00 +27°C° 0 mm 2 mps 748 mmHg 50%
    14:00 +28°C° 0 mm 2 mps 748 mmHg 50%
    15:00 +28°C° 0 mm 2 mps 747 mmHg 50%
    16:00 +27°C° 0 mm 2 mps 748 mmHg 54%
    17:00 +27°C° 0 mm 1 mps 748 mmHg 59%
    18:00 +27°C° 0 mm 1 mps 748 mmHg 64%
    19:00 +25°C° 0 mm 1 mps 748 mmHg 68%
    20:00 +23°C° 0 mm 1 mps 748 mmHg 72%
    21:00 +20°C° 0 mm 1 mps 748 mmHg 76%
    22:00 +20°C° 0 mm 1 mps 748 mmHg 77%
    23:00 +19°C° 0 mm 1 mps 748 mmHg 78%

    Day after tomorrow, 21 June, Friday

    Time Temperature Precipitation Wind Pressure Humidity
    00:00 +19°C° 0 mm 1 mps 749 mmHg 79%
    01:00 +18°C° 0 mm 1 mps 749 mmHg 81%
    02:00 +16°C° 0 mm 1 mps 749 mmHg 82%
    03:00 +16°C° 0 mm 1 mps 749 mmHg 84%
    04:00 +18°C° 0 mm 1 mps 749 mmHg 83%
    05:00 +19°C° 0 mm 1 mps 749 mmHg 82%
    06:00 +20°C° 0 mm 1 mps 750 mmHg 81%
    07:00 +22°C° 0 mm 1 mps 750 mmHg 74%
    08:00 +23°C° 0 mm 1 mps 750 mmHg 68%
    09:00 +25°C° 0 mm 1 mps 750 mmHg 62%
    10:00 +26°C° 0 mm 1 mps 750 mmHg 56%
    11:00 +27°C° 0 mm 1 mps 750 mmHg 51%
    12:00 +28°C° 0 mm 1 mps 750 mmHg 45%
    13:00 +28°C° 0 mm 1 mps 750 mmHg 45%
    14:00 +28°C° 0 mm 1 mps 750 mmHg 44%
    15:00 +28°C° 0 mm 1 mps 750 mmHg 44%
    16:00 +28°C° 0 mm 1 mps 749 mmHg 51%
    17:00 +27°C° 0 mm 1 mps 749 mmHg 57%
    18:00 +26°C° 0 mm 1 mps 749 mmHg 64%
    19:00 +24°C° 0 mm 1 mps 749 mmHg 67%
    20:00 +22°C° 0 mm 1 mps 749 mmHg 70%
    21:00 +21°C° 0 mm 1 mps 749 mmHg 74%
    22:00 +20°C° 0 mm 1 mps 749 mmHg 75%
    23:00 +17°C° 0 mm 0 mps 750 mmHg 77%

    22 June, Saturday

    Time Temperature Precipitation Wind Pressure Humidity
    00:00 +17°C° 0 mm 0 mps 750 mmHg 78%
    01:00 +17°C° 0 mm 0 mps 750 mmHg 78%
    02:00 +16°C° 0 mm 0 mps 750 mmHg 78%
    03:00 +16°C° 0 mm 0 mps 750 mmHg 78%
    04:00 +19°C° 0 mm 1 mps 750 mmHg 77%
    05:00 +20°C° 0 mm 1 mps 750 mmHg 76%
    06:00 +21°C° 0 mm 1 mps 750 mmHg 74%
    07:00 +23°C° 0 mm 1 mps 750 mmHg 71%
    08:00 +24°C° 0 mm 2 mps 750 mmHg 67%
    09:00 +26°C° 0 mm 2 mps 750 mmHg 63%
    10:00 +27°C° 0 mm 3 mps 750 mmHg 60%
    11:00 +28°C° 0 mm 3 mps 750 mmHg 56%
    12:00 +29°C° 0 mm 4 mps 750 mmHg 53%
    13:00 +29°C° 0 mm 3 mps 750 mmHg 51%
    14:00 +29°C° 0 mm 3 mps 750 mmHg 52%
    15:00 +29°C° 0 mm 3 mps 750 mmHg 53%
    16:00 +28°C° 0 mm 3 mps 749 mmHg 57%
    17:00 +28°C° 0 mm 3 mps 749 mmHg 62%
    18:00 +27°C° 0 mm 2 mps 749 mmHg 66%
    19:00 +25°C° 0 mm 2 mps 749 mmHg 70%
    20:00 +24°C° 0 mm 2 mps 749 mmHg 75%
    21:00 +21°C° 0 mm 2 mps 749 mmHg 79%
    22:00 +20°C° 0 mm 2 mps 749 mmHg 80%
    23:00 +20°C° 0 mm 2 mps 749 mmHg 81%

    23 June, Sunday

    Time Temperature Precipitation Wind Pressure Humidity
    00:00 +19°C° 0 mm 2 mps 749 mmHg 83%
    01:00 +19°C° 0 mm 2 mps 749 mmHg 84%
    02:00 +18°C° 0 mm 2 mps 749 mmHg 84%
    03:00 +18°C° 0 mm 2 mps 749 mmHg 85%
    04:00 +19°C° 0 mm 2 mps 749 mmHg 83%
    05:00 +20°C° 0 mm 3 mps 749 mmHg 82%
    06:00 +21°C° 0 mm 3 mps 750 mmHg 80%
    07:00 +22°C° 0 mm 3 mps 750 mmHg 75%
    08:00 +25°C° 0 mm 3 mps 750 mmHg 71%
    09:00 +27°C° 0 mm 4 mps 750 mmHg 67%
    10:00 +27°C° 0 mm 4 mps 750 mmHg 63%
    11:00 +28°C° 0 mm 4 mps 749 mmHg 60%
    12:00 +29°C° 0 mm 4 mps 749 mmHg 57%
    13:00 +30°C° 0.2 mm 4 mps 749 mmHg 58%
    14:00 +30°C° 0.2 mm 4 mps 749 mmHg 58%
    15:00 +30°C° 0.2 mm 4 mps 749 mmHg 59%
    16:00 +29°C° 0.8 mm 4 mps 749 mmHg 65%
    17:00 +28°C° 0.8 mm 3 mps 749 mmHg 71%
    18:00 +28°C° 0.8 mm 2 mps 748 mmHg 77%
    19:00 +26°C° 0 mm 2 mps 749 mmHg 81%
    20:00 +24°C° 0 mm 2 mps 749 mmHg 85%
    21:00 +23°C° 0 mm 1 mps 749 mmHg 90%
    22:00 +22°C° 0 mm 1 mps 749 mmHg 91%
    23:00 +22°C° 0 mm 1 mps 749 mmHg 92%

    24 June, Monday

    Time Temperature Precipitation Wind Pressure Humidity
    00:00 +21°C° 0 mm 1 mps 749 mmHg 93%
    01:00 +21°C° 0 mm 1 mps 749 mmHg 94%
    02:00 +21°C° 0 mm 1 mps 749 mmHg 94%
    03:00 +21°C° 0 mm 1 mps 749 mmHg 94%
    04:00 +21°C° 0 mm 1 mps 749 mmHg 93%
    05:00 +22°C° 0 mm 1 mps 749 mmHg 91%
    06:00 +23°C° 0 mm 1 mps 749 mmHg 89%
    07:00 +24°C° 0.3 mm 1 mps 749 mmHg 85%
    08:00 +26°C° 0.3 mm 1 mps 749 mmHg 80%
    09:00 +27°C° 0.3 mm 2 mps 749 mmHg 75%
    10:00 +28°C° 0.6 mm 2 mps 749 mmHg 72%
    11:00 +28°C° 0.6 mm 2 mps 749 mmHg 68%
    12:00 +29°C° 0.6 mm 2 mps 749 mmHg 65%
    13:00 +29°C° 0.9 mm 2 mps 749 mmHg 65%
    14:00 +29°C° 0.9 mm 2 mps 749 mmHg 65%
    15:00 +29°C° 0.9 mm 1 mps 748 mmHg 66%
    16:00 +29°C° 0.4 mm 1 mps 748 mmHg 70%
    17:00 +28°C° 0.4 mm 1 mps 748 mmHg 74%
    18:00 +28°C° 0.4 mm 1 mps 747 mmHg 78%
    19:00 +26°C° 0.1 mm 1 mps 747 mmHg 80%
    20:00 +25°C° 0.1 mm 1 mps 747 mmHg 81%
    21:00 +23°C° 0.1 mm 1 mps 747 mmHg 83%
    22:00 +23°C° 0 mm 1 mps 747 mmHg 84%
    23:00 +22°C° 0 mm 1 mps 747 mmHg 84%
    Show more